FREGAT DEB, 45837

Orbit data source: Space-Track

FREGAT DEB, 45837 is space debris in LEO originally from a launch on Mon, 18 Jul 2011 UTC launched from the Tyuratam Missile And Space Complex (TTMTR). Debris objects in space refer to the collection of defunct objects orbiting the Earth. Examples of debris include non-operational satellites, rocket bodies, and fragments generated from explosions, collisions, or faulty payload assembly.

Loading next visibility...
Identifier
45837, 2011-037BX
Orbit
LEO
Country
Flag of CISCIS
Related business
Manufacturer
Lavochkin
Mission
Spacecraft
Bus & Motor
Unknown
Mass
Unknown
Launch date (UTC)
2011-07-18 (14 years ago)
Launch vehicle
Unknown
Launch site
Tyuratam Missile And Space Complex (TTMTR)
Object type
Payload
Rocket body
Debris
Shape & HBR
Unknown shape, 0.2 m
Radar Cross Section
Small (<0.1 m²)

Expand to show TLE details & history
Last TLE update: 16 hours ago

TLE from 16 hours ago
0 FREGAT DEB
1 45837U 11037BX  25298.74064347  .00019929  00000-0  27294-1 0  9995
2 45837  51.4692  72.7462 1802224   8.6102 354.1680 10.90199375208236
Epoch: 2025-10-25T17:46Z
TLE epoch observation values (Epoch: 2025-10-25T17:46:31.595Z)
Latitude
-0°
Longitude
131.7477°
Altitude
677.403 km
Speed
8.163 km/s
True Right ascension
04h 50m 59s
True Declination
0° 00' 00"
Sunlit
Object was in full shadow at epoch
Visualization orbit readout
Latitude
Unknown
Longitude
Unknown
Altitude
Unknown
Speed
Unknown
Apparent Right ascension
Unknown
Apparent Declination
Unknown
Sunlit
N/A
Visualization observer readout
Local Sidereal Time
05:11:45
Azimuth
Unknown
Elevation
Unknown
Doppler factor
Unknown
Orbital elements
Apogee altitude
3,762.168 km
Perigee altitude
665.277 km
Semi-major axis
8,591.86 km
Eccentricity
0.18022
Inclination
51.4692°
RAAN
72.7462°
Arg. of periapsis
8.6102°
True anomaly
351.4736°
Mean anomaly
354.168°
Eccentric anomaly
352.88988°
Mean motion
2.72529 °/min
Orbital period
132.1 mins
BSTAR
0.027294
Loading maneuver chart data...
Computing Atmospheric mass density...
Loading historical data...
Loading historical data...
Loading historical data...
Loading historical data...
Loading historical data...
Loading historical data...
Loading historical data...

Documentation

Showing up to 5 results
|